Preview of NWS' New Version of Forecast
This preview is not operational and should not be used for support decisions.

Regional Weather Roundup (RWR)

Issued by National Weather Service (NWS)

                            
000
ASUS44 KJAN 180810
RWRMS 

MISSISSIPPI HOURLY WEATHER ROUNDUP
NATIONAL WEATHER SERVICE JACKSON MS
300 AM CDT TUE JUN 18 2019

NOTE: "FAIR: INDICATES FEW OR NO CLOUDS BELOW 12,000 FEET WITH NO
SIGNIFICANT WEATHER AND/OR OBSTRUCTIONS TO VISIBILITY.

MSZ001>002-007>008-010>013-018>021-025>028-034>036-180900-
NORTHWEST MISSISSIPPI
  
CITY           SKY/WX    TMP DP  RH WIND       PRES   REMARKS
BATESVILLE       N/A     70  68  94 CALM      29.92F                  
CLARKSDALE     PTCLDY    72  72 100 CALM      29.92F                  
CLEVELAND      FAIR      70  70 100 CALM      29.91F                  
GREENWOOD      CLOUDY    73  70  90 S3        29.91F                  
GREENVILLE     FAIR      71  69  93 CALM      29.90F FOG              
OLIVE BRANCH     N/A     70 N/A N/A CALM      29.92S                  
OXFORD         FAIR      68  68 100 SE5       29.95S                  
TUNICA         LGT RAIN  70  68  94 CALM      29.93S                  
WINONA         PTSUNNY   70  70 100 CALM      29.92F                  
$$

MSZ003>006-009-014>017-022>024-029>033-037>039-180900-
NORTHEAST MISSISSIPPI
  
CITY           SKY/WX    TMP DP  RH WIND       PRES   REMARKS
ABERDEEN       CLOUDY    70  70 100 CALM      29.96F                  
COLUMBUS AFB   MOCLDY    73  68  83 CALM      29.96S                  
CORINTH        CLOUDY    72  72 100 CALM      29.94F                  
GOLDN TRIANGLE FAIR      73  71  93 SE5       29.95S                  
STARKVILLE     FAIR      70  68  94 CALM      29.95F                  
TUPELO         MOCLDY    72  69  90 S6        29.94F                  
$$

MSZ040-058-180900-
CENTRAL MISSISSIPPI
  
CITY           SKY/WX    TMP DP  RH WIND       PRES   REMARKS
JACKSON INTL   LGT RAIN  74  71  91 S5        29.91F                  
JACKSON HAWKNS FAIR      74  74 100 SW3       29.92F                  
MADISON        FAIR      72  72 100 CALM      29.92F                  
MERIDIAN KEY   LGT RAIN  75  71  87 CALM      29.93F                  
MERIDIAN NAS   FAIR      73  70  90 E6        29.94S                  
RAYMOND        FAIR      73  73 100 CALM      29.91F                  
VICKSBURG VKS  CLOUDY    73  73 100 CALM      29.92R                  
$$

MSZ059>079-180900-
SOUTH MISSISSIPPI
  
CITY           SKY/WX    TMP DP  RH WIND       PRES   REMARKS
BROOKHAVEN     CLOUDY    73  72  94 E8        29.95R                  
HATTIESBURG    MOCLDY    74  72  93 S3        29.94S                  
LAUREL         SUNNY     74  72  93 S3        29.93S                  
MCCOMB         FAIR      73  71  93 S5        29.93S                  
NATCHEZ        MOCLDY    73  71  93 S7        29.92F                  
PINE BELT      FAIR      73  73 100 S3        29.94F                  
$$

MSZ080>082-180900-
COASTAL MISSISSIPPI
  
CITY           SKY/WX    TMP DP  RH WIND       PRES   REMARKS
BILOXI           N/A    N/A N/A N/A MISG        N/A                   
PASCAGOULA     FAIR      75  72  90 CALM      29.94F                  
GULFPORT       FAIR      78  74  87 S6        29.92F                  
$$

LAZ007>009-015>016-023>026-180900-
NORTHEAST LOUISIANA
  
CITY           SKY/WX    TMP DP  RH WIND       PRES   REMARKS
BASTROP        FAIR      72  71  98 CALM      29.91F                  
TALLULAH/VBURG CLOUDY    74  73  97 CALM      29.92S                  
VIDALIA        CLOUDY    74  72  92 CALM      29.91S                  
$$